Regional Weather Roundup
Issued by NWS Pendleton, OR

Home | Current Version | Previous Version | Text Only | Print | Product List | Glossary On
Versions: 1 2 3 4 5 6 7 8 9 10 11 12 13 14 15 16 17 18 19 20 21 22 23 24 25 26 27 28 29 30 31 32 33 34 35 36 37 38 39 40 41 42 43 44 45 46 47 48 49 50
157
ASUS46 KPDT 191225
RWRPDT
PENDLETON REGIONAL WEATHER ROUNDUP
NATIONAL WEATHER SERVICE PENDLETON OREGON
500 AM PDT THU APR 19 2018

NOTE: FAIR INDICATES FEW OR NO CLOUDS BELOW 12,000 FEET WITH NO
SIGNIFICANT WEATHER AND/OR OBSTRUCTIONS TO VISIBILITY.

# INDICATES UNOFFICIAL STATION AND DATA

WAZ520-191310-
EAST SLOPES OF WASHINGTON CASCADES

CITY            SKY/WX      TMP DP  RH  WIND    PRES   REMARKS
#BULLFROG       N/A         28  27  96  CALM    N/A
#CLE ELUM HS    N/A         28  26  92  CALM    30.11F
#EASTON DOT     N/A         30  29  96  CALM    N/A
#ELK HTS DOT    N/A         31  31  100 SW1     N/A
#GLENWOOD       N/A         29  27  92  CALM    30.16S
#NELSON 3SW     N/A         31  29  92  CALM    30.40S
#NILE           N/A         29  27  92  CALM    29.50S
#TEANAWAY 4NE   N/A         28  27  96  CALM    N/A
#TROUT LAKE 1NE N/A         32  30  92  CALM    30.17S
#TROUT LAKE 1E  N/A         29  27  92  CALM    30.16S
$$

WAZ521-191310-
SIMCOE HIGHLANDS

CITY            SKY/WX      TMP DP  RH  WIND    PRES   REMARKS
#BICKLETON HS   N/A         38  27  64  N20     29.72S WCI 28
#SATUS PASS DOT N/A         33  25  72  N2      N/A
#CENTERVILLE 1SWN/A         37  30  75  CALM    30.11R
#GOLDENDALE 1NE N/A         34  19  54  N2      N/A
#GOLDENDALE 4W  N/A         34  21  58  CALM    30.15R
#GOODNOE HILLS  N/A         41  32  70  CALM    30.02R
#LYLE 6NE       N/A         42  37  82  SE1     30.16S
#PITT 4SE       N/A         38  34  85  CALM    30.18S
$$

WAZ026-191310-
KITTITAS VALLEY

CITY            SKY/WX      TMP DP  RH  WIND    PRES   REMARKS
ELLENSBURG AP   CLEAR       33  28  82  E6      30.16R
6HR MIN TEMP:   32; 6HR MAX TEMP:   42;

#ELLENSBURG CWU N/A         33  30  89  CALM    30.12S
#ELLENSBURG 3NE N/A         31  28  88  CALM    28.23S
#ELLENSBURG 1E  N/A         30  27  88  CALM    30.24R
#KITTITAS 3S    N/A         26  23  88  CALM    30.18R
#MANASTASH RDG  N/A         37  37  100 NW8     N/A
#ROCKY CYN DOT  N/A         34  33  96  W6      N/A
#RYEGRASS DOT   N/A         36  28  72  CALM    N/A
$$

WAZ027-191310-
YAKIMA VALLEY

CITY            SKY/WX      TMP DP  RH  WIND    PRES   REMARKS
SUNNYSIDE AP    CLEAR       42  30  62  SW6     30.13R
YAKIMA AIRPORT  CLEAR       39  30  70  W7      30.15S
6HR MIN TEMP:   36; 6HR MAX TEMP:   55;

YAKIMA-VAGABOND CLEAR       39  29  67  E9      30.13S
6HR MIN TEMP:   39; 6HR MAX TEMP:   49;

#DONALD 2NE     N/A         43  12  28  SW2     28.98R
#GRANDVIEW      N/A         40  30  67  SW1     30.16R
#MABTON         N/A         42  33  70  SW6     30.13R
#MOXEE 2E       N/A         37  N/A N/A SW12    29.79S WCI 29
#NACHES 2SW     N/A         41  32  70  W7      30.12S
#OUTLOOK DOT    N/A         43  31  62  CALM    30.10R
#PARKER DOT     N/A         45  30  55  S10     30.13S
#TERRACE HTS    N/A         45  32  60  NW2     30.11S
#TOPPENISH      N/A         44  32  62  CALM    30.08R
#I82 S UMTANUM RN/A         37  28  70  N2      N/A
#UNION GAP DOT  N/A         43  30  60  NW5     30.19R
#W YAKIMA       N/A         40  31  70  N1      30.17R
#WHITE SWAN 5E  N/A         34  29  82  CALM    30.16S
#WILEY CITY 3W  N/A         38  27  64  CALM    30.11S
#ZILLAH DOT     N/A         43  31  62  W6      N/A
$$

WAZ028-191310-
LOWER COLUMBIA BASIN...WASHINGTON

CITY            SKY/WX      TMP DP  RH  WIND    PRES   REMARKS
HANFORD         MOCLEAR     43  29  57  NW12    30.13R WCI 37
6HR MIN TEMP:   43; 6HR MAX TEMP:   50;

PASCO           CLEAR       38  33  82  N8      30.14R
6HR MIN TEMP:   38; 6HR MAX TEMP:   49;

PROSSER AWOS    N/A         41  32  70  W8      30.17R
RICHLAND AWOS   CLEAR       41  32  70  N6      30.14S
#BASIN CITY 5SW N/A         39  32  76  CALM    30.12S
#BENTON CITY    N/A         51  29  42  N8      30.04R
#CONNELL 5N     N/A         34  30  85  W1      30.14R
#CONNELL 5NW    N/A         34  30  85  NW3     30.09R
#ELTOPIA 6NW    N/A         41  34  76  CALM    29.09R
#KAHLOTUS       N/A         41  32  70  CALM    30.12R
#KENNEWICK 3S   N/A         44  33  65  N1      30.14R
#PROSSER DOT    N/A         43  32  65  W1      30.14R
#SAGEMOOR 2W    N/A         41  33  73  N6      29.99S
#TOUCHET 2S     N/A         42  35  76  W1      30.10R
$$

WAZ029-191310-
FOOTHILLS OF THE BLUES...WASHINGTON

CITY            SKY/WX      TMP DP  RH  WIND    PRES   REMARKS
WALLA WALLA AP  MOCLDY      42  35  76  E5      30.10S
6HR MIN TEMP:   41; 6HR MAX TEMP:   51;

#CLYDE 6NW      N/A         37  30  75  E1      30.10S
#DELANEY DOT    N/A         32  28  85  CALM    30.13R
#LOWDEN 2SE     N/A         39  35  85  E1      30.08R
#PLEASANT VIEW 1N/A         39  31  73  NW1     30.14F
#PRESCOTT       N/A         37  33  85  CALM    30.11R
#WHITMAN COLLEGEN/A         44  36  73  CALM    30.15S
#WAITSBURG 5S   N/A         38  33  82  CALM    30.20S
#WAITSBURG 6SSE N/A         39  31  73  E6      29.93S
#WAITSBURG 8N   N/A          0  N/A N/A CALM    29.82S
#WALLA WALLA 5E N/A         39  35  85  E2      N/A
#WHITMAN MISSIONN/A         41  37  86  CALM    30.12R
$$

WAZ030-191310-
BLUE MOUNTAINS...WASHINGTON

CITY            SKY/WX      TMP DP  RH  WIND    PRES   REMARKS
#DIXIE 5SE      N/A         40  32  73  CALM    29.98F
$$

ORZ009-041-WAZ024-191310-
COLUMBIA RIVER GORGE

CITY            SKY/WX      TMP DP  RH  WIND    PRES   REMARKS
HOOD RIVER AP   MOCLDY      37  36  96  SW3     30.17S
THE DALLES AP   PTCLDY      47  39  74  NW7     30.14S
6HR MIN TEMP:   47; 6HR MAX TEMP:   52;

#ARLINGTON AIRPON/A         44  36  73  SW3     30.14R
#CELILO DOT     N/A         47  34  60  S3      N/A
#LYLE           N/A         46  41  83  N2      30.17S
#MARYHILL       N/A         42  36  79  N5      29.99R
#MURDOCK        N/A         48  40  74  NW10    30.10S
#RUFUS DOT      N/A         48  N/A N/A S2      N/A

$$

ORZ510-191310-
NORTH CENTRAL OREGON

CITY            SKY/WX      TMP DP  RH  WIND    PRES   REMARKS
#ANTELOPE       N/A         34  32  92  CALM    30.03R
#CHENOWITH 1W   N/A         41  38  89  NW16    N/A    WCI 33
#COW CYN RST AREN/A         36  N/A N/A SW3     N/A
#DUFUR          N/A         34  32  92  CALM    30.12R
#DUFUR 9E       N/A         42  34  73  W2      30.20R
#GRASS VALLEY 1SN/A         36  34  92  CALM    30.11R
#KENT DOT       N/A         34  30  85  W8      N/A
#MAUPIN SCHOOL  N/A         40  37  89  CALM    30.19R
#SHANIKO 5WSW   N/A         35  33  92  NW3     N/A
#SHANIKO 4NW    N/A         35  33  92  NW6     30.08R
#TYGH VALLEY 2NEN/A         38  36  92  N1      30.14R
#WAPANITIA AIRPON/A         37  34  89  CALM    30.16S
#WASCO DOT      N/A         34  32  92  E2      N/A
#WASCO 5NE      N/A         37  33  85  N1      30.13R
$$

ORZ511-191310-
CENTRAL OREGON

CITY            SKY/WX      TMP DP  RH  WIND    PRES   REMARKS
BEND AIRPORT    CLOUDY      37  36  96  NW5     30.11S
MADRAS AIRPORT  CLOUDY      36  36  100 SE5     30.14S
PRINEVILLE AP   CLOUDY      37  36  96  W8      30.10R
REDMOND AIRPORT CLOUDY      39  37  92  NW7     30.10S
6HR MIN TEMP:   37; 6HR MAX TEMP:   39; 6HR PCP:  0.03;

#ASHWOOD SCHOOL N/A         36  34  92  CALM    30.08R
#BEND 1SW       N/A         35  34  96  CALM    N/A
#BEND-AWBREY    N/A         36  35  96  N3      30.15R
#BEND-KIM LN    N/A         38  36  92  W1      30.09S
#CULVER         N/A         37  35  92  CALM    29.98S
#CULVER 8W      N/A         39  37  92  CALM    30.11R
#LAKE BILLY CHINN/A         39  N/A N/A CALM    30.19S
#POWELL BUTTE   N/A         36  35  96  NW6     30.03S
#PRINEVILLE     N/A         38  35  89  CALM    30.23R
#PRINEVILLE 3N  N/A         38  36  92  W3      30.13R

$$


ORZ509-191310-
EAST SLOPES OF OREGON CASCADES

CITY            SKY/WX      TMP DP  RH  WIND    PRES   REMARKS
SISTERS AWOS    N/A         37  36  96  CALM    30.08R
#BLUE BOX PASS  N/A         32  N/A N/A SW3     N/A
#CAMP SHERMAN   N/A         37  33  85  CALM    30.19R
#LA PINE 4NW    N/A         33  30  89  CALM    30.18R
#LAVA BUTTE DOT N/A         32  31  96  CALM    N/A
#SISTERS ODOT   N/A         38  35  89  CALM    N/A
#SISTERS 3N     N/A         37  32  82  CALM    30.11S
#SUNRIVER       N/A         34  33  96  N1      30.15S
#TUMALO 3W      N/A         36  34  92  N6      30.03S
#WANOGA BUTTE D N/A         28  N/A N/A N7      N/A

$$

ORZ044-191310-
LOWER COLUMBIA BASIN...OREGON

CITY            SKY/WX      TMP DP  RH  WIND    PRES   REMARKS
HERMISTON       MOCLDY      42  37  82  N3      30.11R
#BOARDMAN SCHOOLN/A         41  33  73  CALM    30.12R
#ECHO 8SW       N/A         42  34  73  CALM    30.13R
#I-84 EX 198 DOTN/A         42  36  79  NE6     N/A
#IONE SCHOOL    N/A         42  27  55  CALM    30.14S
#UMATILLA       N/A         44  33  65  CALM    30.05R
$$

ORZ507-191310-
NORTHERN FOOTHILLS OF THE BLUES

CITY            SKY/WX      TMP DP  RH  WIND    PRES   REMARKS
PENDLETON AIRPT PTCLDY      42  33  70  NW3     30.09R
6HR MIN TEMP:   42; 6HR MAX TEMP:   48;

#ADAMS 3WNW     N/A         38  34  85  CALM    30.10R
#ATHENA         N/A         37  33  85  CALM    30.14R
#CAYUSE         N/A         43  36  76  E1      30.09S
#HELIX SCHOOL   N/A         36  32  85  CALM    30.10S
#HELIX 3N       N/A         37  33  85  CALM    30.09S
#HOLDMAN 5SE    N/A         36  33  89  CALM    30.08R
#HOLDMAN 6E     N/A         37  33  85  CALM    29.91R
#M-F GROVE ELEM N/A         40  32  73  CALM    30.07S
#M-FREEWATER 5SEN/A         39  33  79  CALM    30.09S
#PENDLETON DNTN N/A         44  31  60  CALM    N/A
#PDT AQUATIC CTRN/A         43  30  60  CALM    30.08R
#PDT SUNRIDGE   N/A         41  36  82  CALM    30.12R
#PENDLETON 6SE  N/A         40  34  79  S3      30.06R
#PENDLETON 7NW  N/A         41  34  76  CALM    27.38S
#PILOT ROCK 1S  N/A         42  30  62  S1      30.09S
#PILOT ROCK     N/A         42  33  70  CALM    30.10R
#TUTUILLA       N/A         38  32  79  CALM    30.16R
#UMAPINE 2E     N/A         40  35  82  CALM    30.08R

$$

ORZ508-191310-
SOUTHERN FOOTHILLS OF THE BLUES

CITY            SKY/WX      TMP DP  RH  WIND    PRES   REMARKS
#AJAX           N/A         40  29  64  CALM    30.26R
#CONDON 5W      N/A         36  31  82  NW5     30.06R
#FOSSIL SCHOOL  N/A         38  36  92  CALM    30.03S
#HEPPNER EOC    N/A         39  34  82  CALM    30.06R
#HEPPNER 4NE    N/A         36  32  85  CALM    30.12S
#LEXINGTON 2SE  N/A         36  32  85  CALM    30.09R
#MIKKALO        N/A         35  30  82  E2      30.22R
#OLEX 4N        N/A         38  34  85  SW5     30.11R
#RUGGS 5NE      N/A         36  34  92  CALM    30.23R
#RUGGS 2SW      N/A         38  32  79  W3      30.16R

$$

ORZ502-503-191310-
BLUE MOUNTAINS

CITY            SKY/WX      TMP DP  RH  WIND    PRES   REMARKS
MEACHAM         PTCLDY      31  28  88  CALM    30.05S
6HR MIN TEMP:   31; 6HR MAX TEMP:   36;

#BATTLE MTN DOT N/A         34  28  78  CALM    N/A
#GRANITE        N/A         32  27  82  E1      29.68S
#HEPPNER 15SE   N/A         30  29  96  CALM    25.57S
#LADD CYN SMT   N/A         39  29  67  W8      N/A
#LADD CREEK ODOTN/A         39  30  70  CALM    N/A
#N POWDER DOT   N/A         40  30  67  N6      N/A
#PIKES PEAK     N/A         38  29  70  S7      27.99S
#SUMMERVILLE 5NWN/A         39  32  76  CALM    26.69S
#TOLLGATE       N/A         31  26  81  CALM    30.08R
#TROY SCHOOL    N/A         41  35  79  CALM    29.94S
#UKIAH          N/A         33  31  92  CALM    30.03F
#WESTON 4E      N/A         36  30  79  CALM    30.06S
$$

ORZ505-191310-
JOHN DAY BASIN

CITY            SKY/WX      TMP DP  RH  WIND    PRES   REMARKS
JOHN DAY        CLOUDY      37  37  100 W7      30.06R
#ANTELOPE 9ESE  N/A         41  39  93  CALM    N/A
#MITCHELL 8NW   N/A         35  33  92  CALM    30.19R
#MONUMENT HS    N/A         39  37  92  CALM    30.06R
#MT. VERNON 5SE N/A         35  34  96  CALM    29.99S
$$

ORZ506-191310-
OCHOCO AND JOHN DAY HIGHLANDS

CITY            SKY/WX      TMP DP  RH  WIND    PRES   REMARKS
#HORSE RIDGE DO N/A         33  32  96  NW5     N/A
#KEYES SMT DOT  N/A         32  32  100 NW2     N/A
#PAULINA ODOT   N/A         36  34  92  SW7     N/A
#PINE MTN OBS   N/A         27  25  92  N1      N/A
#PRAIRIE CITY   N/A         37  37  100 CALM    30.19S
#SENECA         N/A         35  N/A N/A CALM    N/A
#SENECA 9NW     N/A         34  31  89  CALM    30.04S
$$

ORZ049-191310-
GRANDE RONDE VALLEY

CITY            SKY/WX      TMP DP  RH  WIND    PRES   REMARKS
LA GRANDE       CLOUDY      44  29  55  W16     30.03F WCI 37
#COVE SCHOOL    N/A         38  32  79  CALM    30.04R
#COVE 6NW       N/A         39  32  76  N3      30.06F
#ELGIN 3N       N/A         35  27  72  CALM    30.00S
#ELGIN 1E       N/A         37  30  75  CALM    N/A
#IMBLER SCHOOL  N/A         39  31  73  CALM    30.00S
#ISLAND CITY 4N N/A         38  36  92  CALM    30.20R
#LADD CYN DOT   N/A         42  32  67  SE6     N/A
#UNION 1S       N/A         40  32  73  NE1     30.06S
$$

ORZ050-191310-
WALLOWA COUNTY

CITY            SKY/WX      TMP DP  RH  WIND    PRES   REMARKS
#ENTERPRISE HS  N/A         33  28  82  CALM    29.96S
#IMNAHA SCHOOL  N/A         40  33  76  S2      30.06S
#IMNAHA 10S     N/A         38  30  73  SW3     30.03S
#JOSEPH         N/A         33  25  72  CALM    30.22S
#JOSEPH 3N      N/A         30  23  75  CALM    30.07S
#JOSEPH 3W      N/A         34  27  75  CALM    29.88S
#LOSTINE        N/A         31  27  85  CALM    29.88S
#LOSTINE 3SE    N/A         34  29  82  SW2     30.09F
#MT HOWARD 8000 N/A         25  19  78  CALM    29.97F
#PROMISE 1S     N/A         36  30  79  CALM    30.13F
#WALLOWA LAKE   N/A         35  27  72  S1      30.06S
#WALLOWA SCHOOL N/A         33  30  89  CALM    30.02S



$$



USA.gov is the U.S. government's official web portal to all federal, state and local government web resources and services.